STARLINK-1543, 46053

Orbit data source: Space-Track

STARLINK-1543, 46053 is a payload satellite owned by SpaceX/Seattle (US) in LEO that was launched on Fri, 07 Aug 2020 UTC via an FALCON 9 launch vehicle from the Air Force Eastern Test Range (AFETR). Payload-class satellites include a variety of spacecraft equipped with specific instruments for various scientific and technological missions. These include communications satellites like Starlink; space stations such as the ISS; scientific satellites like the Hubble; Earth observation satellites from companies like Planet Labs, Umbra, and HawkEye 360; GPS; miniature CubeSats for education and research; and military/defense satellites.

Loading next visibility...
Identifier
46053, 2020-055AC
Orbit
LEO
Country
Flag of USUS
Related business
Manufacturer
SpaceX/Seattle
Mission
Operational Commercial Communications
Bus & Motor
STARLINK, Unknown motor
Mass
260 kg wet, ~248 kg dry
Launch date (UTC)
2020-08-07 (5 years ago)
Launch vehicle
FALCON 9
Launch site
Air Force Eastern Test Range (AFETR)
Object type
Payload
Rocket body
Debris
Shape & HBR
Box + 1 Pan, 4.4 m
Radar Cross Section
13.562 m², Large (>1 m²)

Expand to show TLE details & history
Last TLE update: 8 hours ago

TLE from 8 hours ago
0 STARLINK-1543
1 46053U 20055AC  25260.92194302  .00001175  00000-0  97788-4 0  9992
2 46053  53.0537 172.2013 0001277  95.3474 264.7661 15.06397374282995
Epoch: 2025-09-17T22:07Z
TLE epoch observation values (Epoch: 2025-09-17T22:07:35.876Z)
Latitude
-0.00002°
Longitude
-156.78915°
Altitude
548.179 km
Speed
7.589 km/s
True Right ascension
11h 28m 48s
True Declination
0° 00' 00"
Sunlit
Object was in daylight at epoch
Visualization orbit readout
Latitude
Unknown
Longitude
Unknown
Altitude
Unknown
Speed
Unknown
Apparent Right ascension
Unknown
Apparent Declination
Unknown
Sunlit
N/A
Visualization observer readout
Local Sidereal Time
22:43:49
Azimuth
Unknown
Elevation
Unknown
Doppler factor
Unknown
Orbital elements
Apogee altitude
548.375 km
Perigee altitude
546.606 km
Semi-major axis
6,925.627 km
Eccentricity
0.00013
Inclination
53.0537°
RAAN
172.2013°
Arg. of periapsis
95.3474°
True anomaly
264.75153°
Mean anomaly
264.7661°
Eccentric anomaly
264.75881°
Mean motion
3.76578 °/min
Orbital period
95.6 mins
BSTAR
0.000097788
Loading maneuver chart data...
Computing Atmospheric mass density...
Loading historical data...
Loading historical data...
Loading historical data...
Loading historical data...
Loading historical data...
Loading historical data...
Loading historical data...

Documentation

Showing up to 5 results
|